Location: Felsheim
(48.7267°N, 10.7386°E)
Time: 13:46:27
(UTC+00:00)

Cosmos 1727 Rocket - Pass Details

Date: 09 April 2020
Orbit: 960 x 997 km, 82.9° (Epoch: 02 June)

Event Time Altitude Azimuth Distance (km) Brightness Sun altitude
Exits shadow 22:05:51 59° 54° (NE) 1,131 4.3 -31.1°
Drops below altitude 10° 22:11:18 10° 14° (NNE) 2,769 7.0 -31.4°
Sets 22:13:51 0° 12° (NNE) 3,726 7.9 -31.5°
